Location: Stull Observatory
(42.2506°N, 77.7903°W)
Time: 17:22:06
(UTC-05:00)

ISS - All Passes

Search period start: 20 December 2014 00:00
Search period end: 30 December 2014 00:00
Orbit: 404 x 414 km, 51.6° (Epoch: 20 December)

Date Brightness Start Highest point End Pass type
(mag) Time Alt. Az. Time Alt. Az. Time Alt. Az.
20 Dec - 13:53:26 10° SW 13:56:42 63° SE 13:59:59 10° ENE daylight
20 Dec - 15:30:42 10° WNW 15:33:30 25° NNW 15:36:19 10° NE daylight
20 Dec - 17:08:48 10° NW 17:10:55 16° N 17:13:02 10° NE visible
20 Dec - 18:45:27 10° NW 18:48:18 27° NNE 18:51:09 10° E visible
20 Dec - 20:21:51 10° WNW 20:25:03 54° SW 20:28:15 10° SE night (unlit)
21 Dec - 13:03:00 10° SSW 13:06:02 34° SE 13:09:03 10° ENE daylight
21 Dec - 14:39:32 10° W 14:42:36 35° NNW 14:45:40 10° NE daylight
21 Dec - 16:17:42 10° NW 16:19:53 16° N 16:22:04 10° NE daylight
21 Dec - 17:54:46 10° NW 17:57:21 21° NNE 17:59:55 10° ENE visible
21 Dec - 19:31:02 10° NW 19:34:19 82° NE 19:37:35 10° ESE visible
21 Dec - 21:09:10 10° WSW 21:10:27 12° SW 21:11:42 10° SSW night (unlit)
22 Dec - 12:12:58 10° S 12:15:23 19° SE 12:17:48 10° E daylight
22 Dec - 13:48:27 10° WSW 13:51:42 54° NNW 13:54:57 10° NE daylight
22 Dec - 15:26:26 10° WNW 15:28:49 18° N 15:31:12 10° NE daylight
22 Dec - 17:03:59 10° NW 17:06:18 18° N 17:08:37 10° NE daylight
22 Dec - 18:40:16 10° NW 18:43:28 48° NNE 18:46:39 10° ESE visible
22 Dec - 20:17:16 10° W 20:19:50 21° SW 20:22:23 10° S visible
23 Dec - 11:24:08 10° SE 11:24:45 10° SE 11:25:22 10° ESE daylight
23 Dec - 12:57:31 10° SW 13:00:50 87° SE 13:04:08 10° ENE daylight
23 Dec - 14:35:05 10° WNW 14:37:44 22° NNW 14:40:24 10° NE daylight
23 Dec - 16:13:02 10° NW 16:15:11 16° N 16:17:20 10° NE daylight
23 Dec - 17:49:30 10° NW 17:52:30 32° NNE 17:55:29 10° E visible
23 Dec - 19:26:02 10° WNW 19:29:07 38° SW 19:32:10 10° SSE visible
24 Dec - 12:06:47 10° SW 12:09:58 47° SE 12:13:10 10° ENE daylight
24 Dec - 13:43:43 10° W 13:46:40 29° NNW 13:49:36 10° NE daylight
24 Dec - 15:21:52 10° NW 15:24:00 16° N 15:26:09 10° NE daylight
24 Dec - 16:58:42 10° NW 17:01:26 23° NNE 17:04:09 10° ENE daylight
24 Dec - 18:35:00 10° WNW 18:38:16 73° SW 18:41:32 10° SE visible
25 Dec - 11:16:21 10° SSW 11:19:09 26° SE 11:21:57 10° ENE daylight
25 Dec - 12:52:25 10° W 12:55:35 42° NNW 12:58:46 10° NE daylight
25 Dec - 14:30:31 10° NW 14:32:47 17° N 14:35:04 10° NE daylight
25 Dec - 16:07:48 10° NW 16:10:16 19° NNE 16:12:43 10° ENE daylight
25 Dec - 17:44:03 10° NW 17:47:19 63° NNE 17:50:34 10° ESE visible
25 Dec - 19:21:28 10° W 19:23:33 16° SW 19:25:37 10° S visible
26 Dec - 10:26:29 10° SSE 10:28:21 14° SE 10:30:13 10° E daylight
26 Dec - 12:01:14 10° WSW 12:04:32 70° NNW 12:07:50 10° NE daylight
26 Dec - 13:39:02 10° WNW 13:41:33 20° NNW 13:44:04 10° NE daylight
26 Dec - 15:16:47 10° NW 15:19:01 17° N 15:21:14 10° NE daylight
26 Dec - 16:53:07 10° NW 16:56:15 39° NNE 16:59:21 10° E daylight
26 Dec - 18:29:51 10° WNW 18:32:43 28° SW 18:35:35 10° SSE visible
27 Dec - 11:10:14 10° SW 11:13:30 65° SE 11:16:47 10° ENE daylight
27 Dec - 12:47:30 10° WNW 12:50:18 25° NNW 12:53:06 10° NE daylight
27 Dec - 14:25:34 10° NW 14:27:42 16° N 14:29:49 10° NE daylight
27 Dec - 16:02:11 10° NW 16:05:04 27° NNE 16:07:55 10° E daylight
27 Dec - 17:38:34 10° WNW 17:41:47 53° SW 17:44:58 10° SE visible
28 Dec - 10:19:28 10° SSW 10:22:30 34° SE 10:25:33 10° ENE daylight
28 Dec - 11:56:00 10° W 11:59:04 34° NNW 12:02:08 10° NE daylight
28 Dec - 13:34:08 10° NW 13:36:20 16° N 13:38:31 10° NE daylight
28 Dec - 15:11:10 10° NW 15:13:46 21° NNE 15:16:22 10° ENE daylight
28 Dec - 16:47:25 10° NW 16:50:43 84° NE 16:53:59 10° ESE daylight
28 Dec - 18:25:35 10° WSW 18:26:49 12° SW 18:28:02 10° SSW visible
29 Dec - 09:29:06 10° S 09:31:32 19° SE 09:33:58 10° E daylight
29 Dec - 11:04:35 10° WSW 11:07:50 54° NNW 11:11:05 10° NE daylight
29 Dec - 12:42:32 10° WNW 12:44:56 18° N 12:47:19 10° NE daylight
29 Dec - 14:20:04 10° NW 14:22:24 18° N 14:24:44 10° NE daylight
29 Dec - 15:56:19 10° NW 15:59:32 48° NNE 16:02:43 10° ESE daylight
29 Dec - 17:33:19 10° W 17:35:53 21° SW 17:38:26 10° S visible
